[[{"header":{"parameterUnit":"m.s-1","parameterCategory":1,"la1":30.2991,"la2":30.254,"lo1":-89.0895,"lo2":-89.0444,"dy":0.0017,"dx":0.0017,"nx":28,"ny":28,"refTime":"2024-04-11T09:00:00:Z","depth":0,"parameterNumber":2,"parameterNumberName":"U-component_of_WINDS"},"data":[0,0,0,0,0,0,0,0,0,0,0,0,0,0,0,0,0,0,0,0,0,0,0,0,0,0,0,0,0,0,0,0,0,0,0,0,0,0,0,0,0,0,0,0,0,0,0,0,0,0,0,0,0,0,0,0,0,0,9.119,9.1191,0,9.1322,9.1323,9.1325,9.1174,9.1169,9.1163,9.1158,9.1291,9.1299,9.1308,0,0,0,0,0,0,0,0,0,0,0,0,0,9.0806,9.0814,9.119,9.1191,9.1193,9.1321,9.1323,9.1325,9.1175,9.1168,9.1162,9.1155,9.1288,9.1298,9.1309,0,0,0,0,0,0,0,0,0,0,0,0,0,9.0959,9.0817,9.1189,9.1134,9.113,9.1321,9.1323,9.1326,9.1177,9.1168,9.116,9.1152,9.1285,9.1297,9.131,9.1562,0,0,9.1351,9.1357,0,0,0,0,0,0,0,0,9.0951,9.0973,9.114,9.1138,9.1134,9.1223,9.1237,9.1405,9.1179,9.1159,9.1158,9.1148,9.1275,9.1288,9.1332,9.1568,9.1574,9.1352,9.136,9.1366,9.1369,0,0,0,0,0,0,0,9.094,9.0967,9.1242,9.1143,9.1139,9.1102,9.1114,9.1268,9.1263,9.116,9.115,9.1167,9.1272,9.1319,9.1334,9.1576,9.1352,9.1363,9.1372,9.1377,9.2025,9.2034,0,0,0,0,0,0,9.0936,9.0959,9.1237,9.1246,9.102,9.1116,9.1129,9.1203,9.1261,9.1262,9.1174,9.116,9.1301,9.1319,9.1338,9.1636,9.1366,9.1378,9.1386,9.2016,9.2027,9.2037,0,0,0,0,0,0,9.0929,9.0962,9.1232,9.11,9.1131,9.1131,9.1215,9.121,9.1258,9.1272,9.127,9.1224,9.1295,9.1319,9.1507,9.1639,9.1384,9.1396,9.2005,9.2019,9.2032,9.2235,0,0,0,0,0,0,9.0918,9.0961,9.1057,9.1103,9.1139,9.1401,9.1223,9.1219,9.1281,9.1263,9.1318,9.1319,9.129,9.1489,9.1521,9.1652,9.1406,9.1993,9.2011,9.2028,9.2217,9.2254,9.2287,0,0,0,0,0,9.0905,9.1108,9.1062,9.1097,9.1259,9.1409,9.1429,9.1393,9.1292,9.1389,9.1398,9.1317,9.1619,9.1509,9.1544,9.1682,9.1985,9.2006,9.2026,9.2201,9.2247,9.2286,0,0,0,0,0,0,9.1077,9.1113,9.1063,9.1287,9.1346,9.1383,9.1503,9.1442,9.153,9.151,9.146,9.1474,9.1674,9.1696,9.1573,9.1928,9.1785,9.1814,9.1906,9.195,9.1984,9.1975,9.1417,0,0,0,0,0,9.1141,9.126,9.1285,9.1481,9.1513,9.1504,9.1568,9.1534,9.1593,9.1617,9.164,9.1699,9.1807,9.188,9.198,9.2219,9.2229,9.2331,9.2366,9.2394,9.242,9.2548,9.2594,9.2106,9.2105,9.2105,0,0,9.1274,9.1309,9.1387,9.1516,9.1558,9.1682,9.1526,9.1663,9.1755,9.1638,9.1817,9.1836,9.1899,9.2114,9.221,9.2139,9.2557,9.2421,9.2444,9.2454,9.2574,9.262,9.2661,9.212,9.2117,9.2115,0,0,9.1581,9.1619,9.1786,9.1832,9.1897,9.189,9.193,9.1977,9.1985,9.2165,9.208,9.2187,9.2375,9.2423,9.2472,9.2798,9.2728,9.2832,9.3015,9.314,9.3178,9.3212,9.3328,9.3371,9.2858,9.2858,9.2859,0,9.1738,9.1922,9.188,9.2025,9.2084,9.1984,9.2153,9.2198,9.2294,9.2337,9.2256,9.2489,9.2525,9.275,9.2829,9.2872,9.2916,9.2826,9.3176,9.321,9.3241,9.3351,9.3395,9.287,9.2869,9.2868,9.2867,0,9.2113,9.2242,9.2369,9.2465,9.2538,9.2694,9.2674,9.2754,9.2714,9.2716,9.2899,9.2938,9.3045,9.3096,9.3058,9.3316,9.327,9.3184,9.3039,9.33,9.3403,9.3445,9.2888,9.2884,9.288,9.2877,0,0,9.2531,9.2601,9.2649,9.2691,9.2756,9.2855,9.3006,9.3111,9.318,9.3249,9.3375,9.3536,9.3457,9.3513,9.348,9.359,9.3846,9.349,9.3491,9.3555,9.4132,9.4196,9.4246,9.3799,9.3807,9.3813,9.4126,0,9.2839,9.3102,9.3069,9.3321,9.344,9.3347,9.3478,9.3532,9.3538,9.3638,9.3643,9.3758,9.3645,9.3678,9.3783,9.3793,9.3961,9.3769,9.3915,9.3921,9.3902,9.43,9.4368,9.4662,9.4166,9.4173,9.4178,0,9.3234,9.3318,9.3583,9.363,9.3678,9.3797,9.3891,9.3989,9.4048,9.4043,9.4107,9.4054,9.4205,9.4058,9.4265,9.4136,9.4193,9.4207,9.4217,9.4229,9.4065,9.4323,9.4755,9.4799,9.4241,9.4236,9.4231,0,9.3513,9.3692,9.3874,9.3912,9.3972,9.4058,9.4087,9.4137,9.4203,9.4284,9.4326,9.4424,9.4478,9.4554,9.4529,9.4424,9.4742,9.4592,9.4742,9.4743,9.4813,9.4809,9.5261,9.485,9.485,9.4849,9.4848,0,9.3861,9.4026,9.4,9.4112,9.4294,9.4253,9.4435,9.4452,9.4498,9.4611,9.4536,9.4643,9.4603,9.4708,9.4689,9.4863,9.4888,9.4888,9.4881,9.4896,9.4896,9.4932,9.4911,9.4861,9.4858,9.4856,9.4854,0,9.4204,9.4193,9.4385,9.4425,9.444,9.4572,9.4606,9.4711,9.471,9.4854,9.4885,9.4884,9.5003,9.4986,9.5118,9.5105,9.5322,9.529,9.5303,9.5296,9.5446,9.5432,9.5937,9.6001,9.555,9.5554,9.5558,0,9.4427,9.4552,9.4607,9.4677,9.4712,9.4827,9.4893,9.4858,9.493,9.5007,9.5102,9.5215,9.5303,9.5498,9.5508,9.5609,9.5579,9.5749,9.5594,9.5604,9.5582,9.5575,9.5587,9.578,9.5785,9.5789,9.5793,0,9.4824,9.4812,9.4911,9.501,9.5091,9.5167,9.5234,9.5296,9.5266,9.5351,9.5473,9.5542,9.5677,9.579,9.5885,9.5912,9.5849,9.5842,9.5881,9.5897,9.5899,9.59,9.5387,9.583,9.5826,9.5824,9.5822,9.582,9.5114,9.5221,9.5276,9.5389,9.5436,9.5501,9.5602,9.5613,9.5714,9.5823,9.5795,9.5933,9.5988,9.6108,9.6147,9.6253,9.619,9.6248,9.6263,9.6278,9.6296,9.5882,9.627,9.6269,9.6268,9.6267,9.6266,0,9.5507,9.5538,9.5642,9.574,9.5829,9.5761,9.5832,9.5911,9.6033,9.609,9.6179,9.6319,9.6427,9.6446,9.655,9.6631,9.6604,9.666,9.6653,9.6661,9.6346,9.6301,9.668,9.668,9.668,9.6679,9.6679,9.6679,9.5722,9.59,9.5895,9.6095,9.6124,9.6259,9.6305,9.6365,9.641,9.657,9.666,9.6672,9.6714,9.6819,9.6916,9.6918,9.696,9.7027,9.7018,9.6724,9.6683,9.6643,9.6601,9.7036,9.7037,9.7324,9.7326,9.7328]},{"header":{"parameterUnit":"m.s-1","parameterCategory":1,"la1":30.2991,"la2":30.254,"lo1":-89.0895,"lo2":-89.0444,"dy":0.0017,"dx":0.0017,"nx":28,"ny":28,"refTime":"2024-04-11T09:00:00:Z","depth":0,"parameterNumber":3,"parameterNumberName":"V-component_of_WINDS"},"data":[0,0,0,0,0,0,0,0,0,0,0,0,0,0,0,0,0,0,0,0,0,0,0,0,0,0,0,0,0,0,0,0,0,0,0,0,0,0,0,0,0,0,0,0,0,0,0,0,0,0,0,0,0,0,0,0,0,0,0.391,0.3911,0,0.4014,0.4015,0.4017,0.4072,0.4072,0.4072,0.4072,0.418,0.4183,0.4186,0,0,0,0,0,0,0,0,0,0,0,0,0,0.3759,0.3762,0.391,0.3911,0.3913,0.4014,0.4016,0.4017,0.4072,0.4072,0.4072,0.4072,0.4179,0.4183,0.4186,0,0,0,0,0,0,0,0,0,0,0,0,0,0.384,0.3762,0.391,0.3952,0.3957,0.4014,0.4016,0.4017,0.4072,0.4072,0.4072,0.4072,0.4178,0.4182,0.4186,0.4209,0,0,0.4199,0.4201,0,0,0,0,0,0,0,0,0.3835,0.3846,0.3945,0.3949,0.3955,0.403,0.4002,0.4082,0.4072,0.4028,0.4072,0.4072,0.413,0.4138,0.4158,0.4214,0.4219,0.4199,0.4202,0.4204,0.4205,0,0,0,0,0,0,0,0.383,0.3841,0.3951,0.3946,0.3952,0.3966,0.3978,0.4017,0.4077,0.4032,0.4036,0.4048,0.4133,0.4153,0.4161,0.422,0.4199,0.4203,0.4206,0.4207,0.43,0.43,0,0,0,0,0,0,0.3817,0.3836,0.3948,0.3954,0.3894,0.3969,0.3982,0.4006,0.4077,0.4088,0.4048,0.405,0.4146,0.4156,0.4165,0.4196,0.4204,0.4208,0.421,0.43,0.43,0.43,0,0,0,0,0,0,0.3814,0.3827,0.3944,0.3897,0.3913,0.3971,0.3998,0.4008,0.4028,0.4089,0.41,0.4057,0.4147,0.4159,0.4197,0.42,0.421,0.4213,0.43,0.43,0.43,0.4257,0,0,0,0,0,0,0.3809,0.3825,0.3834,0.3896,0.3915,0.3975,0.3998,0.401,0.4035,0.4039,0.4101,0.4111,0.4148,0.4191,0.4201,0.4206,0.4217,0.43,0.43,0.43,0.4259,0.4256,0.4253,0,0,0,0,0,0.3804,0.3819,0.3835,0.3848,0.3928,0.3975,0.3985,0.4027,0.4035,0.4045,0.4084,0.4109,0.4198,0.4194,0.4207,0.4213,0.43,0.43,0.43,0.426,0.4257,0.4254,0,0,0,0,0,0,0.3757,0.3828,0.3846,0.3882,0.3922,0.3984,0.3998,0.4022,0.4061,0.4063,0.4113,0.4127,0.416,0.419,0.4185,0.4238,0.4251,0.4254,0.4217,0.4214,0.4211,0.4204,0.422,0,0,0,0,0,0.375,0.3782,0.3843,0.3869,0.3887,0.3939,0.3961,0.3989,0.4033,0.405,0.4092,0.4133,0.417,0.4194,0.4231,0.4263,0.4277,0.4273,0.427,0.4268,0.4269,0.4288,0.4286,0.4299,0.4299,0.4299,0,0,0.3738,0.3781,0.3798,0.386,0.3894,0.3926,0.3953,0.3986,0.401,0.4055,0.4094,0.4126,0.4175,0.421,0.4228,0.4236,0.4269,0.4268,0.4265,0.4268,0.4287,0.4286,0.4285,0.4299,0.4299,0.4299,0,0,0.3731,0.3767,0.3792,0.3825,0.3876,0.391,0.3916,0.3974,0.3997,0.4036,0.4071,0.41,0.4163,0.4197,0.4222,0.4226,0.4251,0.4237,0.4223,0.424,0.4239,0.4239,0.424,0.424,0.4238,0.4238,0.4238,0,0.371,0.3759,0.3802,0.3833,0.3859,0.39,0.3925,0.3956,0.4017,0.4034,0.4042,0.4121,0.4158,0.4201,0.4201,0.4221,0.4229,0.4231,0.4236,0.4236,0.4236,0.4237,0.4238,0.4236,0.4237,0.4237,0.4237,0,0.373,0.3763,0.3777,0.3834,0.3862,0.3889,0.3936,0.3959,0.3984,0.4017,0.4056,0.4101,0.4148,0.416,0.4186,0.4206,0.421,0.4226,0.4241,0.4232,0.4234,0.4235,0.4233,0.4234,0.4235,0.4235,0,0,0.3698,0.3777,0.3781,0.3807,0.3866,0.3893,0.3922,0.3967,0.3985,0.4025,0.4051,0.4102,0.4118,0.4146,0.4176,0.4191,0.419,0.4205,0.4207,0.4201,0.4215,0.4202,0.4203,0.4207,0.4207,0.4207,0.4211,0,0.37,0.3755,0.3793,0.3833,0.3864,0.3903,0.3928,0.3966,0.3997,0.4028,0.4063,0.4098,0.4116,0.4133,0.415,0.4187,0.4194,0.4187,0.4231,0.4232,0.4218,0.4204,0.4191,0.4193,0.4212,0.4212,0.4213,0,0.3711,0.3748,0.379,0.3844,0.3859,0.3881,0.3925,0.3954,0.3998,0.4019,0.405,0.408,0.4112,0.4123,0.4168,0.4163,0.4183,0.4203,0.4205,0.4211,0.4222,0.421,0.4194,0.4194,0.4215,0.4214,0.4214,0,0.3683,0.3744,0.3777,0.3798,0.3862,0.3877,0.3904,0.3948,0.3972,0.401,0.4026,0.4068,0.4091,0.4122,0.4162,0.4166,0.4203,0.4217,0.4221,0.422,0.4228,0.4227,0.4215,0.424,0.424,0.424,0.424,0,0.3681,0.3706,0.3766,0.3786,0.3814,0.3858,0.3884,0.3915,0.3953,0.398,0.4016,0.404,0.4092,0.4122,0.4154,0.4186,0.4196,0.4214,0.4222,0.4211,0.4208,0.4225,0.4226,0.424,0.424,0.424,0.424,0,0.3656,0.3697,0.3735,0.3792,0.3807,0.3825,0.3874,0.3895,0.3927,0.396,0.397,0.4021,0.4058,0.4101,0.4153,0.4174,0.4204,0.4216,0.4189,0.4193,0.4195,0.4194,0.4194,0.4196,0.4219,0.4218,0.4218,0,0.3652,0.3672,0.373,0.375,0.3776,0.3809,0.3833,0.3876,0.39,0.3951,0.3965,0.4005,0.404,0.4098,0.4139,0.4179,0.4192,0.4189,0.4198,0.4186,0.4192,0.419,0.4192,0.4187,0.4186,0.4186,0.4185,0,0.3642,0.3661,0.3694,0.3735,0.3763,0.3797,0.3832,0.3847,0.3897,0.3922,0.396,0.3987,0.4039,0.4078,0.4122,0.4151,0.4176,0.4182,0.4185,0.4174,0.4157,0.4166,0.4182,0.4182,0.4182,0.4183,0.4183,0.4183,0.3627,0.3646,0.3689,0.3725,0.3756,0.3788,0.381,0.3845,0.3877,0.3923,0.3946,0.3984,0.4026,0.4088,0.4115,0.4145,0.4154,0.4158,0.416,0.416,0.4157,0.4152,0.4154,0.4154,0.4154,0.4154,0.4154,0,0.3618,0.3648,0.368,0.3728,0.3756,0.3777,0.3817,0.3839,0.3872,0.3909,0.3941,0.3985,0.4022,0.4066,0.4106,0.4122,0.4134,0.4131,0.413,0.4136,0.4147,0.414,0.412,0.412,0.412,0.412,0.412,0.412,0.3617,0.3649,0.3673,0.3721,0.375,0.3787,0.3808,0.3837,0.3867,0.3914,0.3945,0.3973,0.4012,0.4055,0.4091,0.4102,0.4115,0.4108,0.4123,0.4133,0.4136,0.4138,0.4132,0.4111,0.4111,0.4111,0.4111,0.411]}]]